Location: Ferintosh
(52.7647°N, 112.9692°W)
Time: 13:43:32
(UTC+00:00)

Transit 2A Rocket - Pass Details

Date: 25 May 2024
Orbit: 583 x 910 km, 66.7° (Epoch: 14 June)

Event Time Altitude Azimuth Distance (km) Brightness Sun altitude
Rises 13:02:42 0° 261° (W) 3,106 7.5 12.8°
Reaches altitude 10° 13:05:15 10° 273° (W) 2,245 6.9 13.2°
Maximum altitude 13:09:43 29° 334° (NNW) 1,412 6.4 13.9°
Drops below altitude 10° 13:14:35 10° 33° (NNE) 2,442 8.5 14.6°
Sets 13:17:29 0° 45° (NE) 3,429 9.5 15.0°
